Temp
79 78 74 75 74 74 74 74 74 74 74 75 75 75 75 75 75 75 76 76 77 78 78 77 77 76 76 76 75 74 74 74 74 74 75 75 75 75 74 74 74 74 74
79 79 74 74 74 74 74 74 74 74 75 75 75 74 74 74 75 75 75 76 77 78 77 77 76 76 76 75 74 73 73 73 73 74 75 74 74 74 73 73 73 73 73
79 78 77 74 74 74 74 74 75 75 75 75 74 74 74 75 75 75 75 76 76 77 77 77 76 76 75 74 73 73 73 73 73 75 75 73 72 74 73 72 72 73 73
80 79 77 73 74 74 74 74 74 75 75 74 74 74 74 75 75 75 75 75 76 77 77 76 76 75 74 72 72 73 73 73 73 74 77 75 74 73 73 73 72 72 72
78 81 77 72 73 74 74 74 74 74 74 74 74 74 74 75 75 75 74 74 76 76 77 76 75 73 72 71 71 72 72 72 73 77 73 72 71 73 72 71 71 70 70
78 80 71 71 72 73 74 74 73 73 73 73 73 74 74 74 74 74 74 74 75 76 76 74 73 71 70 70 70 71 71 71 71 76 73 72 70 72 72 71 70 70 70
76 73 73 70 72 73 74 73 72 72 72 72 73 73 74 73 73 73 72 73 74 74 74 72 71 70 70 69 70 69 70 70 75 76 72 69 69 72 72 71 70 70 69
72 74 73 72 72 72 72 72 71 71 71 72 72 72 72 72 71 71 71 72 72 72 71 71 70 69 69 69 69 69 69 69 78 76 71 69 71 72 71 71 70 69 69
65 71 72 72 72 70 69 69 69 70 70 71 71 70 70 70 70 70 70 71 71 70 70 70 69 68 68 68 69 68 68 69 70 73 74 68 71 71 71 70 70 69 69
62 63 65 69 69 68 68 67 67 68 68 68 69 68 68 69 69 69 69 70 70 70 69 69 68 67 67 67 68 68 69 68 70 70 67 65 71 71 70 70 69 69 69
62 64 65 64 65 67 68 68 68 68 68 68 68 68 68 71 70 70 68 68 69 69 68 68 67 66 67 67 68 69 69 69 70 68 64 66 70 71 70 69 69 68 68
62 63 63 63 63 66 67 67 68 70 70 70 70 69 70 69 70 69 67 67 67 67 67 67 67 67 68 67 67 68 68 69 68 65 61 66 69 71 69 69 68 68 68
61 60 61 62 63 62 63 63 63 65 68 68 68 70 69 70 68 66 66 67 65 67 68 67 66 67 69 67 67 65 66 67 65 63 62 65 68 70 69 68 68 67 67
60 60 60 61 61 60 61 60 63 67 65 67 70 69 69 67 67 66 69 67 67 67 67 67 66 67 66 68 67 65 65 64 63 61 60 63 66 69 69 68 67 67 66
59 60 60 61 61 61 61 63 65 65 68 68 69 70 69 68 66 67 68 68 69 68 67 66 66 66 66 66 65 66 65 64 64 63 58 62 64 67 69 69 68 67 66
59 58 60 60 60 61 61 62 62 65 66 67 67 69 70 67 66 66 67 68 67 68 68 67 65 65 64 64 63 64 64 63 64 63 60 57 62 64 65 66 67 67 66
57 58 58 58 59 58 58 58 61 64 66 66 67 68 68 68 67 67 66 66 66 68 66 66 65 64 63 65 63 63 63 64 63 63 61 59 58 61 62 64 64 63 64
58 58 59 60 58 58 58 57 59 63 66 66 66 67 68 69 67 67 67 66 67 65 65 63 62 61 61 61 61 61 62 62 63 62 62 60 59 60 60 62 62 62 62
59 59 59 59 58 58 59 59 62 66 65 65 66 66 69 68 68 66 66 66 66 65 63 64 62 61 60 61 62 60 60 59 61 66 62 61 59 59 57 60 61 61 62
60 60 59 60 60 60 59 62 66 66 67 67 66 66 68 69 69 67 67 65 66 64 63 62 61 61 60 59 67 63 59 59 59 58 59 63 60 59 59 58 55 56 60
61 61 62 62 62 61 61 64 66 66 64 64 66 68 68 69 69 68 67 65 64 63 62 62 60 59 58 59 56 57 57 58 57 56 57 57 59 60 58 57 55 54 55
63 63 64 65 64 65 65 70 70 69 67 65 67 67 68 68 68 68 66 65 64 62 60 60 59 58 58 58 53 53 49 52 54 57 55 57 55 57 58 59 57 57 55
66 66 68 68 68 69 69 71 71 69 66 65 64 66 68 65 64 64 67 65 63 62 59 59 59 59 55 57 57 52 48 46 48 53 53 54 54 53 54 56 57 57 56
69 70 71 72 70 71 71 71 69 68 65 66 65 67 67 65 65 68 69 65 63 62 60 59 62 58 57 53 56 60 55 52 45 43 51 52 53 54 53 52 53 55 56
71 70 71 73 72 72 71 69 69 66 66 66 66 65 62 62 62 62 64 65 63 62 61 60 58 57 56 54 52 54 54 51 49 45 42 46 51 53 52 51 51 51 55
72 70 71 73 73 72 71 70 68 68 67 66 64 62 61 61 61 62 65 64 62 62 61 58 57 55 53 53 54 54 51 49 47 45 42 44 44 48 50 51 50 50 50
MSLP
1007.12 1008.12 1008.15 1008.16 1008.52 1009.37 1010.39 1011.20 1011.88 1012.57 1012.97 1013.43 1013.85 1014.47 1014.94 1015.30 1015.69 1015.94 1016.17 1016.55 1016.83 1017.09 1017.45 1017.81 1018.13 1018.33 1018.50 1018.79 1019.19 1019.37 1019.55 1019.73 1019.81 1020.07 1020.35 1020.59 1020.82 1020.73 1020.87 1020.90 1020.82 1020.84 1020.85
1006.87 1007.42 1008.25 1008.30 1008.90 1009.39 1010.31 1011.21 1011.82 1012.59 1013.15 1013.66 1014.17 1014.69 1015.28 1015.73 1016.14 1016.50 1016.60 1016.96 1017.19 1017.47 1017.89 1018.28 1018.69 1018.94 1019.18 1019.39 1019.65 1019.68 1019.89 1020.15 1020.06 1020.04 1020.46 1020.95 1021.24 1021.14 1021.32 1021.38 1021.42 1021.25 1021.22
1007.55 1006.59 1007.86 1008.53 1008.82 1009.48 1010.28 1011.15 1011.96 1012.64 1013.36 1013.89 1014.44 1015.17 1015.56 1016.05 1016.48 1016.76 1017.10 1017.20 1017.47 1017.94 1018.34 1018.74 1019.21 1019.41 1019.70 1019.75 1019.79 1019.93 1020.19 1020.51 1020.54 1020.40 1020.49 1021.28 1021.70 1021.65 1021.73 1021.94 1021.84 1021.79 1021.80
1008.48 1006.11 1008.30 1008.28 1009.04 1009.83 1010.56 1011.46 1012.35 1012.96 1013.64 1014.16 1014.78 1015.43 1015.90 1016.41 1016.78 1017.08 1017.44 1017.52 1017.81 1018.28 1018.72 1019.16 1019.65 1019.75 1019.88 1019.89 1020.06 1020.16 1020.55 1020.90 1020.88 1020.81 1020.92 1021.44 1022.05 1022.37 1022.30 1022.32 1022.42 1022.26 1022.17
1009.11 1007.60 1008.89 1008.51 1009.35 1010.05 1010.91 1011.77 1012.70 1013.54 1014.09 1014.55 1015.13 1015.76 1016.19 1016.68 1017.11 1017.40 1017.76 1017.97 1018.14 1018.67 1019.02 1019.55 1019.90 1020.24 1020.40 1020.45 1020.64 1020.61 1020.72 1020.82 1020.73 1020.72 1021.41 1021.96 1022.50 1022.76 1022.82 1022.88 1022.78 1022.79 1022.64
1008.60 1008.59 1009.55 1009.48 1010.37 1011.09 1011.75 1012.27 1013.21 1013.89 1014.59 1015.03 1015.43 1016.02 1016.51 1016.99 1017.41 1017.71 1018.03 1018.37 1018.62 1018.94 1019.49 1019.98 1020.29 1020.85 1020.99 1020.95 1021.18 1021.09 1020.92 1020.76 1020.71 1020.88 1021.75 1022.31 1022.90 1023.09 1023.16 1023.24 1023.25 1023.22 1023.12
1008.22 1008.71 1009.40 1010.04 1010.57 1011.23 1011.86 1012.43 1013.53 1014.29 1014.90 1015.32 1015.72 1016.33 1016.87 1017.23 1017.56 1017.90 1018.31 1018.67 1018.96 1019.33 1019.98 1020.34 1020.76 1021.18 1021.44 1021.42 1021.34 1021.19 1020.96 1020.62 1020.60 1021.03 1021.87 1022.64 1023.13 1023.33 1023.49 1023.59 1023.64 1023.65 1023.59
1008.26 1008.30 1008.81 1009.79 1010.53 1011.31 1012.38 1012.66 1013.68 1014.47 1015.19 1015.73 1016.05 1016.66 1017.12 1017.54 1017.80 1018.23 1018.59 1018.87 1019.36 1019.89 1020.47 1020.78 1021.18 1021.53 1021.71 1021.93 1021.70 1021.48 1021.35 1021.42 1020.83 1021.56 1022.31 1022.82 1023.21 1023.46 1023.79 1023.99 1024.00 1023.97 1024.02
1010.39 1008.78 1009.04 1009.79 1011.04 1012.29 1012.65 1013.85 1014.43 1014.89 1015.56 1015.94 1016.60 1017.10 1017.55 1017.89 1018.13 1018.61 1018.89 1019.35 1019.77 1020.32 1020.84 1021.14 1021.42 1021.84 1022.13 1022.25 1022.13 1021.88 1021.84 1021.53 1021.56 1021.89 1022.54 1023.18 1023.55 1023.75 1024.06 1024.31 1024.38 1024.51 1024.55
1009.20 1008.79 1010.07 1010.53 1011.60 1012.56 1013.55 1014.52 1015.04 1015.49 1016.05 1016.45 1017.17 1017.66 1017.98 1018.35 1018.36 1018.88 1019.41 1019.81 1020.16 1020.78 1021.18 1021.47 1021.88 1022.25 1022.32 1022.61 1022.53 1022.40 1022.32 1022.07 1021.92 1022.67 1023.39 1023.88 1023.72 1024.04 1024.41 1024.57 1024.80 1024.80 1024.94
1011.33 1011.33 1010.93 1011.64 1012.05 1013.19 1013.94 1015.05 1015.66 1015.95 1016.49 1017.08 1017.83 1018.30 1018.53 1018.66 1018.78 1019.32 1019.89 1020.14 1020.41 1021.07 1021.39 1021.85 1022.04 1022.45 1022.49 1022.74 1022.64 1022.46 1022.52 1022.16 1022.49 1023.22 1023.93 1024.26 1024.18 1024.20 1024.68 1024.84 1025.03 1025.15 1025.11
1012.35 1011.70 1012.83 1012.65 1013.13 1013.82 1014.82 1015.41 1015.49 1016.13 1016.89 1017.53 1017.96 1018.53 1018.99 1018.81 1019.24 1020.00 1020.35 1020.55 1020.70 1021.25 1021.60 1022.06 1022.04 1022.43 1022.46 1022.60 1022.65 1022.72 1022.65 1022.55 1022.91 1023.78 1024.33 1024.50 1024.59 1024.29 1024.80 1025.04 1025.09 1025.36 1025.36
1011.16 1011.70 1012.49 1013.60 1014.02 1014.68 1015.32 1015.49 1016.24 1015.92 1017.04 1017.90 1017.83 1018.20 1018.90 1018.77 1019.88 1020.18 1020.78 1020.74 1021.44 1021.53 1021.76 1022.17 1022.47 1022.72 1022.65 1022.60 1022.81 1023.12 1023.06 1022.95 1023.39 1024.02 1024.59 1024.61 1024.63 1024.47 1024.79 1025.14 1025.36 1025.44 1025.59
1012.25 1012.86 1013.88 1014.62 1014.99 1015.39 1015.68 1015.90 1016.77 1017.37 1017.87 1018.31 1018.09 1018.62 1018.21 1019.40 1019.89 1020.61 1020.38 1020.77 1021.32 1021.27 1021.64 1021.99 1022.47 1022.71 1022.75 1022.84 1023.21 1023.42 1023.51 1023.51 1023.65 1024.43 1024.61 1024.68 1024.63 1024.51 1024.77 1025.08 1025.41 1025.55 1025.86
1013.26 1014.01 1014.83 1015.38 1015.77 1015.91 1016.34 1016.75 1017.17 1017.71 1018.02 1018.38 1018.31 1017.96 1018.56 1019.33 1019.76 1020.29 1020.31 1020.69 1020.82 1021.04 1021.53 1022.05 1022.60 1022.98 1022.94 1023.15 1023.42 1023.39 1023.68 1023.75 1023.71 1024.31 1024.61 1024.72 1024.85 1024.78 1024.88 1025.13 1025.41 1025.58 1025.88
1014.16 1014.72 1015.32 1016.17 1016.28 1016.52 1017.17 1016.84 1017.13 1017.39 1018.34 1018.69 1018.49 1018.17 1018.82 1019.47 1019.99 1020.19 1020.20 1020.49 1020.62 1021.09 1021.52 1021.97 1022.42 1022.83 1022.97 1023.32 1023.76 1023.73 1023.87 1023.78 1023.91 1024.20 1024.68 1024.81 1024.89 1025.12 1025.38 1025.38 1025.52 1025.61 1025.76
1014.82 1015.20 1015.75 1016.33 1016.39 1016.41 1017.29 1017.61 1018.03 1018.12 1018.32 1018.56 1018.25 1018.81 1019.36 1019.56 1020.00 1020.02 1020.35 1020.48 1020.82 1021.20 1021.50 1021.92 1022.31 1022.59 1022.98 1023.10 1023.52 1023.64 1023.82 1023.97 1024.24 1024.27 1024.52 1024.84 1025.23 1025.31 1025.49 1025.67 1025.82 1025.93 1026.00
1015.01 1015.68 1016.11 1016.78 1017.24 1017.90 1018.12 1018.17 1018.50 1018.96 1018.33 1018.51 1018.89 1019.43 1019.96 1019.85 1019.85 1020.02 1020.39 1020.66 1020.83 1021.16 1021.62 1022.17 1022.61 1022.88 1023.20 1023.13 1023.26 1023.69 1023.70 1024.05 1024.27 1024.36 1024.33 1024.88 1025.34 1025.56 1025.70 1025.85 1025.89 1025.92 1026.06
1015.33 1015.89 1016.35 1016.76 1017.41 1018.02 1018.52 1018.89 1019.14 1018.67 1018.62 1019.30 1019.28 1019.41 1019.52 1019.53 1019.79 1020.05 1020.25 1020.66 1020.78 1021.30 1021.78 1022.15 1022.47 1022.79 1022.98 1023.05 1023.28 1023.56 1023.70 1024.01 1024.07 1024.12 1024.36 1024.80 1025.05 1025.17 1025.54 1025.77 1025.80 1025.78 1025.90
1015.51 1016.25 1016.66 1017.00 1017.45 1017.97 1018.46 1018.53 1018.36 1018.38 1018.49 1018.76 1018.86 1019.09 1019.17 1019.19 1019.54 1019.92 1019.98 1020.52 1020.91 1021.46 1021.95 1022.13 1022.50 1022.78 1022.81 1023.12 1023.30 1023.35 1023.59 1023.64 1023.84 1024.21 1024.44 1024.58 1024.70 1024.81 1024.93 1025.26 1025.55 1025.60 1025.86
1015.23 1015.96 1016.07 1016.57 1017.16 1017.77 1018.07 1017.82 1017.60 1017.58 1017.87 1018.22 1018.30 1018.69 1018.81 1019.08 1019.35 1019.52 1019.96 1020.49 1020.99 1021.52 1021.86 1022.11 1022.65 1023.07 1023.06 1023.40 1023.79 1023.74 1023.36 1023.55 1023.96 1024.14 1024.30 1024.44 1024.39 1024.48 1024.66 1024.87 1025.18 1025.33 1025.65
1014.52 1015.13 1015.70 1015.96 1016.33 1016.65 1016.90 1016.70 1016.75 1016.80 1017.32 1017.74 1018.17 1018.28 1018.43 1018.86 1019.07 1019.33 1019.87 1020.36 1020.81 1021.22 1021.72 1022.21 1022.69 1023.15 1022.93 1023.26 1024.01 1024.23 1024.03 1024.33 1024.33 1024.17 1024.17 1024.15 1024.26 1024.36 1024.58 1024.62 1024.73 1024.87 1025.12
1013.70 1014.01 1014.42 1014.92 1015.23 1015.56 1015.78 1015.76 1015.84 1016.18 1016.93 1017.46 1017.89 1018.08 1018.19 1018.67 1019.22 1019.42 1019.49 1019.94 1020.46 1020.92 1021.64 1022.19 1022.47 1022.51 1022.95 1023.30 1023.70 1024.26 1024.40 1024.47 1024.52 1023.93 1024.06 1024.10 1024.22 1024.24 1024.40 1024.50 1024.45 1024.56 1024.72
1012.25 1012.85 1013.11 1013.38 1014.04 1014.44 1014.70 1014.67 1015.14 1015.59 1016.40 1016.82 1017.30 1017.78 1018.09 1018.63 1019.16 1019.20 1019.30 1019.89 1020.37 1020.65 1021.42 1021.77 1022.03 1022.44 1022.84 1023.45 1023.80 1023.89 1024.11 1024.48 1024.92 1025.05 1024.17 1024.06 1024.02 1023.98 1024.13 1024.25 1024.03 1024.08 1024.28
1011.21 1011.81 1012.24 1012.50 1012.87 1013.44 1013.89 1014.14 1014.40 1015.07 1015.62 1016.04 1016.72 1017.36 1018.02 1018.62 1018.88 1019.12 1019.28 1019.39 1019.80 1020.30 1020.87 1021.45 1021.92 1022.43 1022.93 1023.38 1023.80 1023.98 1023.92 1024.15 1024.36 1024.82 1024.88 1024.36 1023.88 1023.68 1023.71 1023.93 1023.87 1023.95 1023.90
1010.16 1010.95 1011.33 1011.54 1011.93 1012.45 1013.08 1013.48 1013.95 1014.46 1015.08 1015.66 1016.28 1017.11 1017.61 1018.42 1018.89 1019.09 1019.05 1019.21 1019.78 1020.07 1020.65 1021.36 1021.85 1022.56 1023.09 1023.52 1023.79 1023.71 1024.18 1024.44 1024.51 1024.90 1024.88 1024.64 1024.50 1024.17 1023.85 1023.72 1023.89 1023.90 1023.71
Wind_Speed
16 18 20 25 24 24 23 22 21 20 20 19 19 18 18 18 17 17 17 16 17 19 21 21 20 22 23 22 20 18 18 19 22 24 23 24 23 24 24 22 20 16 21
21 20 21 25 24 24 24 23 22 21 20 20 19 19 18 17 16 15 17 16 17 19 21 21 21 21 21 19 14 13 14 14 19 24 23 22 22 23 22 21 19 17 20
20 21 23 25 25 25 26 25 23 22 21 20 20 19 18 17 16 16 16 17 19 19 21 21 20 20 18 15 10 10 10 8 6 9 21 13 14 21 21 21 20 20 20
9 18 19 25 26 25 25 24 23 22 21 20 20 19 18 17 16 16 15 16 18 19 20 20 19 19 17 11 7 8 9 8 4 5 8 13 14 20 20 21 21 21 20
9 14 16 22 24 25 25 24 22 21 20 20 20 19 18 18 16 16 15 15 17 20 20 19 19 17 13 9 8 10 8 7 9 14 14 12 9 15 19 20 18 19 20
11 15 14 19 22 24 24 23 22 21 20 20 20 20 19 19 17 16 15 15 17 19 20 19 18 15 10 10 8 8 10 12 8 15 13 15 10 16 18 19 18 19 19
5 18 16 20 24 25 25 24 22 20 20 20 20 20 20 20 19 18 17 14 16 20 19 18 17 14 10 9 9 10 12 16 10 15 13 11 8 16 17 17 18 18 18
13 18 20 22 23 24 23 24 22 20 20 19 20 20 20 20 20 19 18 18 20 19 17 16 15 14 12 8 9 10 12 10 8 13 13 9 13 15 15 16 16 17 17
16 11 15 20 22 19 22 18 17 18 18 18 19 19 19 18 19 19 18 18 19 18 17 16 16 13 11 9 7 10 10 14 8 10 13 7 11 13 13 14 14 15 15
16 20 12 10 15 16 16 20 18 17 15 17 17 17 17 17 20 20 18 18 19 18 17 17 15 12 11 7 4 6 10 12 4 12 9 6 8 11 12 12 12 13 13
16 14 13 9 11 14 15 16 17 20 18 17 14 15 11 9 11 13 15 18 19 17 16 15 14 11 10 6 3 3 6 3 8 8 6 12 9 9 10 11 11 11 12
12 14 12 13 12 13 10 11 12 12 8 8 10 6 4 7 10 11 12 16 17 15 14 12 12 11 9 4 1 3 4 4 7 7 5 10 8 6 10 10 11 10 11
11 12 14 13 13 12 9 8 5 5 5 4 5 3 5 9 7 6 5 6 6 9 6 5 5 3 2 4 5 5 5 4 5 6 7 10 8 5 10 9 9 9 9
13 15 14 11 10 11 9 9 8 4 4 4 4 7 8 4 6 4 5 6 5 4 6 5 3 4 5 6 5 4 5 5 3 4 6 11 9 8 10 9 8 8 7
13 16 14 12 9 12 9 6 7 6 5 4 5 6 5 4 6 4 5 5 5 5 4 4 5 3 4 5 3 4 4 4 4 4 4 11 11 10 7 6 6 6 5
12 13 13 11 10 13 5 5 4 6 6 4 3 5 5 4 5 4 4 4 5 4 5 5 5 5 4 6 4 3 3 4 5 5 4 5 11 11 10 6 3 2 2
12 14 14 12 12 12 7 6 4 2 5 5 3 3 5 5 5 5 3 4 4 3 6 5 3 3 3 4 6 3 5 2 4 3 4 4 5 8 8 9 8 6 5
14 15 15 11 11 9 7 6 4 4 2 3 2 5 5 8 5 5 4 4 4 5 5 4 3 3 4 3 3 2 3 3 4 1 4 5 4 5 6 8 7 6 3
13 13 15 15 13 12 10 8 10 7 3 5 6 6 11 9 6 5 5 4 6 4 4 4 2 4 2 1 4 4 3 1 5 2 5 3 4 3 4 8 8 7 7
13 13 13 12 13 13 12 11 10 8 8 8 5 5 8 7 8 8 5 6 4 4 4 3 3 1 3 2 4 2 4 4 2 2 3 4 4 6 4 5 3 5 8
15 15 16 15 15 12 9 11 9 8 5 3 3 7 7 6 7 5 5 6 4 5 5 5 2 3 1 3 2 4 3 6 4 2 3 4 3 1 0 4 3 1 5
19 18 16 16 17 14 11 10 7 6 6 4 7 8 8 6 6 6 6 7 6 5 7 5 5 4 2 4 1 2 3 1 2 5 4 4 5 3 2 4 3 2 3
21 20 19 19 17 15 15 9 6 6 6 5 6 7 6 6 4 4 5 7 6 5 5 4 4 3 2 3 5 2 2 1 1 2 5 4 4 3 3 2 4 4 4
18 18 17 15 17 13 14 10 10 8 8 6 5 6 7 7 8 10 6 6 6 5 6 5 4 2 3 2 2 3 3 3 2 4 4 3 4 5 5 5 5 4 4
20 18 16 16 14 15 13 8 8 8 7 6 7 8 5 4 4 4 8 7 7 5 6 7 5 4 3 2 2 2 3 2 4 4 4 5 3 2 1 1 3 3 3
17 19 18 16 17 16 16 14 10 12 12 9 9 9 7 7 6 7 8 7 6 5 6 5 6 6 3 2 3 1 1 1 2 2 3 4 3 4 3 4 3 3 4
Wind_Direction
147 153 145 141 138 134 132 131 129 128 124 120 113 110 106 105 106 107 108 108 107 105 100 95 89 87 85 85 87 89 92 97 96 87 74 68 62 59 55 48 59 57 54
145 149 143 140 137 134 134 134 132 129 125 122 116 111 110 109 110 111 112 113 110 106 103 97 94 92 92 96 98 101 104 112 115 106 88 70 63 63 60 55 57 55 54
150 139 143 142 139 139 138 136 133 130 127 123 115 115 115 115 115 114 116 115 109 107 105 102 101 100 98 95 87 85 92 96 120 83 89 78 57 57 60 53 49 57 50
164 136 148 141 139 138 135 133 132 129 127 121 118 117 117 116 116 115 113 113 113 111 112 108 103 99 92 84 78 72 44 34 18 295 79 81 66 57 52 56 53 49 50
187 149 146 134 133 134 132 129 126 124 122 121 120 120 118 116 114 112 112 112 115 115 111 107 101 93 88 79 52 34 17 351 341 80 70 69 70 61 60 55 52 52 52
168 140 122 122 128 130 126 121 123 125 125 123 122 121 119 114 110 108 110 118 121 113 110 105 100 95 83 70 51 20 351 336 309 105 93 79 72 66 61 59 58 55 55
179 125 130 132 133 134 132 126 126 127 126 125 123 122 117 110 105 100 100 105 120 110 110 108 105 96 85 66 32 11 358 357 1 94 86 86 78 68 65 63 62 60 58
155 150 141 136 132 131 125 122 127 126 125 124 121 119 114 110 104 102 101 97 105 105 108 107 102 95 83 66 36 8 356 353 45 88 86 85 80 71 64 61 63 61 57
47 157 132 135 125 111 107 111 116 118 121 117 117 116 111 106 104 103 103 103 105 109 110 107 101 97 90 66 35 359 350 349 346 70 75 75 78 80 71 66 68 63 58
45 34 50 109 120 108 101 91 92 96 98 102 108 110 107 109 103 100 102 109 111 110 108 106 103 100 93 80 24 350 350 324 36 76 66 34 89 85 80 78 73 67 61
129 145 126 81 73 101 106 101 99 100 96 99 104 112 115 120 102 94 107 108 108 112 112 115 114 118 119 132 230 312 315 13 51 80 69 45 57 94 94 92 84 74 67
134 117 125 107 111 106 104 111 114 113 118 123 130 124 132 116 105 103 100 104 108 114 116 133 139 154 159 172 205 307 43 357 78 88 72 63 48 84 107 100 92 82 72
110 104 108 116 113 104 104 105 81 75 100 117 125 141 158 99 114 107 128 107 115 121 127 149 137 183 114 59 56 29 10 24 64 81 75 67 55 53 120 108 99 90 80
113 115 111 111 116 109 114 98 113 121 128 161 190 167 111 112 118 151 133 133 163 148 153 151 94 83 85 82 84 87 39 26 53 100 94 79 59 63 124 116 109 99 88
111 120 119 117 106 116 115 132 148 134 141 171 181 119 109 137 131 174 144 160 181 135 124 125 121 159 104 93 76 82 114 106 14 105 104 98 80 68 104 115 125 118 101
96 111 112 110 117 129 124 91 95 117 162 180 172 109 119 155 150 150 141 158 104 127 150 148 160 149 163 126 97 86 40 51 68 69 131 112 108 101 92 78 94 105 105
103 100 95 97 85 67 50 47 33 148 144 172 83 133 168 149 161 140 126 113 151 184 122 103 121 108 119 123 146 173 151 129 104 51 102 147 129 122 122 115 101 75 44
113 117 113 106 100 101 86 62 50 271 201 82 246 176 179 180 145 145 154 186 136 109 118 131 170 174 186 166 116 136 88 135 125 179 79 75 134 142 135 139 142 149 161
126 129 133 142 147 145 149 159 185 219 222 198 191 194 196 167 175 190 173 145 123 143 152 163 161 171 156 152 164 161 131 274 152 189 127 149 166 119 147 176 191 194 200
139 142 151 157 159 166 171 187 204 213 197 194 192 171 191 174 190 202 163 127 150 148 153 179 146 238 149 84 346 62 168 174 190 154 188 196 210 154 178 164 190 196 194
157 165 167 164 172 176 203 208 205 193 171 175 176 202 186 194 187 194 143 138 199 169 165 135 137 148 92 120 355 280 236 171 166 197 211 217 230 73 329 152 205 188 184
165 172 176 184 187 197 197 198 193 175 173 174 195 196 188 181 190 178 164 160 206 147 130 154 175 202 152 102 63 330 294 73 238 208 221 220 208 169 269 261 208 169 202
177 184 188 189 186 190 196 209 184 151 169 179 207 186 181 153 214 232 188 162 174 138 146 176 199 194 176 143 146 156 313 291 324 230 203 207 170 175 218 260 290 259 226
185 184 193 201 183 193 208 189 185 183 172 185 178 181 173 174 188 208 183 163 167 150 158 173 189 158 114 106 136 195 200 153 218 329 342 298 224 204 210 227 224 220 226
183 194 203 204 189 189 204 220 181 172 186 174 179 166 145 164 176 187 230 179 166 164 164 169 137 136 135 122 146 267 239 199 203 206 262 276 311 313 325 231 246 216 217
189 190 201 211 192 194 191 195 211 180 191 176 164 167 172 175 187 218 224 168 166 172 154 134 130 133 134 165 234 247 322 258 316 319 306 299 289 302 311 338 331 292 241